| time (UTC) | temp F | wind direction | speed knots | gust knots | rain 1hr in | rain 24hr in | rain mn in | humidity % | barometer mb |
| 20260505034513 | 61 | 85 | 4.3 | 7.8 | 0.00 | 0.00 | 0.00 | 50 | 1002.4 |
| 20260505033008 | 61 | 245 | 2.6 | 4.3 | 0.00 | 0.00 | 0.00 | 48 | 1002.1 |
| 20260505031518 | 61 | 253 | 2.6 | 6.1 | 0.00 | 0.00 | 0.00 | 49 | 1001.9 |
| 20260505030007 | 61 | 250 | 1.7 | 6.1 | 0.00 | 0.00 | 0.00 | 49 | 1001.3 |
| 20260505024506 | 61 | 278 | 2.6 | 7.8 | 0.00 | 0.00 | 0.00 | 50 | 1001.3 |
| 20260505023009 | 61 | 336 | 6.1 | 11.3 | 0.00 | 0.00 | 0.00 | 50 | 1001.0 |
| 20260505021505 | 62 | 284 | 11.3 | 15.6 | 0.00 | 0.00 | 0.00 | 47 | 1001.0 |
| 20260505020005 | 63 | 298 | 8.7 | 18.2 | 0.00 | 0.00 | 0.00 | 46 | 1000.9 |
| 20260505014504 | 64 | 273 | 11.3 | 16.5 | 0.00 | 0.00 | 0.00 | 43 | 1000.7 |
| 20260505013005 | 68 | 296 | 12.2 | 20.9 | 0.00 | 0.00 | 0.00 | 32 | 1000.2 |
| 20260505011504 | 69 | 269 | 5.2 | 12.2 | 0.00 | 0.00 | 0.00 | 32 | 999.9 |
| 20260505010003 | 68 | 221 | 7.0 | 13.0 | 0.00 | 0.00 | 0.00 | 33 | 999.9 |
| 20260505004502 | 69 | 207 | 7.8 | 14.8 | 0.00 | 0.00 | 0.00 | 33 | 999.9 |
| 20260505003002 | 69 | 360 | 8.7 | 15.6 | 0.00 | 0.00 | 0.00 | 32 | 1000.0 |
| 20260505001502 | 70 | 211 | 10.4 | 15.6 | 0.00 | 0.00 | 0.00 | 31 | 999.9 |
| 20260505000116 | 70 | 190 | 6.1 | 10.4 | 0.00 | 0.00 | 0.00 | 33 | 1000.1 |
| 20260504234600 | 70 | 175 | 5.2 | 12.2 | 0.00 | 0.00 | 0.00 | 35 | 1000.1 |
| 20260504233111 | 69 | 163 | 5.2 | 11.3 | 0.00 | 0.00 | 0.00 | 36 | 1000.4 |
| 20260504231601 | 71 | 126 | 2.6 | 7.0 | 0.00 | 0.00 | 0.00 | 34 | 1000.4 |
| 20260504230058 | 70 | 183 | 0.9 | 2.6 | 0.00 | 0.00 | 0.00 | 35 | 1000.6 |
| 20260504224607 | 69 | 156 | 0.0 | 4.3 | 0.00 | 0.00 | 0.00 | 38 | 1000.5 |
| 20260504223129 | 68 | 122 | 2.6 | 6.1 | 0.00 | 0.00 | 0.00 | 39 | 1000.3 |
| 20260504221556 | 68 | 140 | 1.7 | 6.1 | 0.00 | 0.00 | 0.00 | 39 | 1000.6 |
| 20260504220056 | 67 | 197 | 1.7 | 7.8 | 0.00 | 0.00 | 0.00 | 45 | 1000.7 |
| 20260504214554 | 68 | 207 | 1.7 | 7.0 | 0.00 | 0.00 | 0.00 | 44 | 1000.8 |
| 20260504213101 | 69 | 319 | 2.6 | 7.8 | 0.00 | 0.00 | 0.00 | 35 | 1000.9 |
| 20260504211550 | 70 | 281 | 5.2 | 10.4 | 0.00 | 0.00 | 0.00 | 34 | 1001.3 |
| 20260504210056 | 71 | 205 | 3.5 | 6.1 | 0.00 | 0.00 | 0.00 | 33 | 1001.2 |
| 20260504204550 | 72 | 97 | 5.2 | 9.6 | 0.00 | 0.00 | 0.00 | 33 | 1001.5 |
| 20260504203104 | 71 | 306 | 5.2 | 9.6 | 0.00 | 0.00 | 0.00 | 35 | 1001.5 |
| 20260504201549 | 71 | 29 | 3.5 | 7.8 | 0.00 | 0.00 | 0.00 | 35 | 1001.7 |
| 20260504200045 | 70 | 38 | 7.8 | 10.4 | 0.00 | 0.00 | 0.00 | 36 | 1001.9 |
| 20260504194542 | 70 | 334 | 1.7 | 7.0 | 0.00 | 0.00 | 0.00 | 38 | 1002.3 |
| 20260504193039 | 70 | 47 | 1.7 | 5.2 | 0.00 | 0.00 | 0.00 | 39 | 1002.5 |
| 20260504191537 | 67 | 340 | 1.7 | 3.5 | 0.00 | 0.00 | 0.00 | 42 | 1002.6 |
| 20260504190037 | 66 | 23 | 0.9 | 6.1 | 0.00 | 0.00 | 0.00 | 41 | 1002.7 |
| 20260504184533 | 66 | 30 | 0.0 | 4.3 | 0.00 | 0.00 | 0.00 | 43 | 1003.0 |
| 20260504183032 | 66 | 20 | 3.5 | 7.8 | 0.00 | 0.00 | 0.00 | 45 | 1003.2 |
| 20260504181538 | 64 | 5 | 5.2 | 7.8 | 0.00 | 0.00 | 0.00 | 46 | 1003.5 |
| 20260504180028 | 64 | 349 | 2.6 | 5.2 | 0.00 | 0.00 | 0.00 | 46 | 1003.8 |
| 20260504174528 | 63 | 9 | 2.6 | 7.0 | 0.00 | 0.00 | 0.00 | 53 | 1003.9 |
| 20260504173028 | 63 | 348 | 6.1 | 9.6 | 0.00 | 0.00 | 0.00 | 50 | 1003.9 |
| 20260504171528 | 65 | 12 | 6.1 | 9.6 | 0.00 | 0.00 | 0.00 | 45 | 1004.0 |
| 20260504081541 | 64 | 116 | 3.5 | 7.8 | 0.00 | 0.00 | 0.00 | 34 | 1004.9 |
| 20260504050025 | 63 | 130 | 1.7 | 3.5 | 0.00 | 0.00 | 0.00 | 24 | 1004.6 |
| 20260504044534 | 64 | 113 | 1.7 | 4.3 | 0.00 | 0.00 | 0.00 | 24 | 1004.7 |
| 20260504043025 | 65 | 104 | 2.6 | 6.1 | 0.00 | 0.00 | 0.00 | 23 | 1004.7 |
| 20260504041523 | 66 | 104 | 4.3 | 7.8 | 0.00 | 0.00 | 0.00 | 22 | 1004.8 |
| 20260504040023 | 67 | 65 | 0.9 | 3.5 | 0.00 | 0.00 | 0.00 | 21 | 1004.7 |